Satellite-Ground Cal/Val Region Overpasses Predictions

Prediction of Satellite NPP Overpassing Cal/Val Region: PacNW

Region Location: (Latitude: 10.00, Longitude: 139.50) to (Latitude: 22.70, Longitude: 165.60).

Table of predicted overpasses for the next 14.0 days since TLE Epoch: 2/5/2016
Interval Starting Time Starting Location Ending Time Ending Location
1 02/06/2016 02:11:54 ( 19.50, 165.60) 02/06/2016 02:12:48 ( 22.67, 164.82)
2 02/06/2016 03:50:43 ( 10.06, 142.44) 02/06/2016 03:54:14 ( 22.44, 139.50)
3 02/06/2016 14:41:05 ( 22.69, 165.05) 02/06/2016 14:44:41 ( 10.01, 162.04)
4 02/06/2016 16:22:35 ( 22.68, 139.67) 02/06/2016 16:22:46 ( 22.03, 139.51)
5 02/07/2016 03:31:40 ( 10.03, 147.21) 02/07/2016 03:35:15 ( 22.65, 144.21)
6 02/07/2016 16:03:32 ( 22.65, 144.43) 02/07/2016 16:07:07 ( 10.02, 141.43)
7 02/08/2016 03:12:37 ( 10.06, 151.96) 02/08/2016 03:16:12 ( 22.68, 148.96)
8 02/08/2016 15:44:29 ( 22.68, 149.19) 02/08/2016 15:48:04 ( 10.05, 146.19)
9 02/09/2016 02:53:34 ( 10.03, 156.73) 02/09/2016 02:57:09 ( 22.65, 153.73)
10 02/09/2016 15:25:27 ( 22.64, 153.95) 02/09/2016 15:29:02 ( 10.02, 150.95)
11 02/10/2016 02:34:30 ( 10.00, 161.49) 02/10/2016 02:38:06 ( 22.68, 158.48)
12 02/10/2016 15:06:23 ( 22.67, 158.71) 02/10/2016 15:09:58 ( 10.05, 155.71)
13 02/11/2016 02:16:16 ( 12.85, 165.60) 02/11/2016 02:19:03 ( 22.65, 163.25)
14 02/11/2016 03:56:58 ( 10.04, 140.87) 02/11/2016 03:58:38 ( 15.92, 139.51)
15 02/11/2016 14:47:20 ( 22.70, 163.48) 02/11/2016 14:50:56 ( 10.02, 160.47)
16 02/12/2016 03:37:54 ( 10.02, 145.64) 02/12/2016 03:41:30 ( 22.70, 142.62)
17 02/12/2016 14:31:25 ( 11.63, 165.60) 02/12/2016 14:31:52 ( 10.04, 165.23)
18 02/12/2016 16:09:47 ( 22.65, 142.85) 02/12/2016 16:13:22 ( 10.03, 139.86)
19 02/13/2016 03:18:52 ( 10.05, 150.39) 02/13/2016 03:22:27 ( 22.67, 147.39)
20 02/13/2016 15:50:44 ( 22.68, 147.62) 02/13/2016 15:54:19 ( 10.06, 144.62)
21 02/14/2016 02:59:48 ( 10.02, 155.16) 02/14/2016 03:03:23 ( 22.65, 152.16)
22 02/14/2016 15:31:41 ( 22.65, 152.37) 02/14/2016 15:35:16 ( 10.02, 149.38)
23
